Location: Unspecified
(44.0704°N, 88.6889°W)
Time: 06:55:32
(UTC+02:00)

ISS - Pass Details

Date: 31 March 2019
Orbit: 408 x 410 km, 51.6° (Epoch: 23 April)

Event Time Altitude Azimuth Distance (km) Brightness Sun altitude
Rises 04:00:23 0° 298° (WNW) 2,338 1.8 -18.3°
Reaches altitude 10° 04:02:45 10° 313° (NW) 1,475 0.1 -18.6°
Maximum altitude 04:05:29 23° 9° (N) 912 -1.9 -19.1°
Enters shadow 04:06:15 21° 31° (NNE) 968 -2.0 -19.2°
